| time (UTC) | temp F | wind direction | speed MPH | gust MPH | rain 1hr in | rain 24hr in | rain mn in | humidity % | barometer mb |
| 20260905004457 | 59 | 297 | 2.0 | 3.0 | 0.00 | 0.00 | 0.00 | 77 | 1014.7 |
| 20260905004432 | 0 | 0.0 | 0.0 | 0.00 | 0.00 | 0.00 | |||
| 20260905003957 | 59 | 311 | 2.0 | 3.0 | 0.00 | 0.00 | 0.00 | 76 | 1014.6 |
| 20260905003933 | 0 | 0.0 | 0.0 | 0.00 | 0.00 | 0.00 | |||
| 20260905003457 | 59 | 313 | 2.0 | 4.0 | 0.00 | 0.00 | 0.00 | 75 | 1014.6 |
| 20260905003433 | 0 | 0.0 | 0.0 | 0.00 | 0.00 | 0.00 | |||
| 20260905002958 | 59 | 289 | 2.0 | 4.0 | 0.00 | 0.00 | 0.00 | 75 | 1014.5 |
| 20260905002932 | 0 | 0.0 | 0.0 | 0.00 | 0.00 | 0.00 | |||
| 20260905002458 | 59 | 303 | 2.0 | 5.0 | 0.00 | 0.00 | 0.00 | 75 | 1014.5 |
| 20260905001957 | 59 | 296 | 4.0 | 8.0 | 0.00 | 0.00 | 0.00 | 75 | 1014.4 |
| 20260905001457 | 59 | 300 | 2.0 | 3.0 | 0.00 | 0.00 | 0.00 | 76 | 1014.5 |
| 20260905001427 | 0 | 0.0 | 0.0 | 0.00 | 0.00 | 0.00 | |||
| 20260905000957 | 59 | 301 | 6.0 | 10.0 | 0.00 | 0.00 | 0.00 | 75 | 1014.4 |
| 20260905000927 | 0 | 0.0 | 0.0 | 0.00 | 0.00 | 0.00 | |||
| 20260905000457 | 59 | 285 | 2.0 | 4.0 | 0.00 | 0.00 | 0.00 | 76 | 1014.4 |
| 20260905000427 | 0 | 0.0 | 0.0 | 0.00 | 0.00 | 0.00 | |||
| 20260904235957 | 59 | 307 | 3.0 | 5.0 | 0.00 | 0.00 | 0.00 | 76 | 1014.4 |
| 20260904235928 | 0 | 0.0 | 0.0 | 0.00 | 0.00 | 0.00 | |||
| 20260904235457 | 59 | 301 | 2.0 | 4.0 | 0.00 | 0.00 | 0.00 | 76 | 1014.3 |
| 20260904235427 | 0 | 0.0 | 0.0 | 0.00 | 0.00 | 0.00 | |||
| 20260904234957 | 60 | 308 | 3.0 | 4.0 | 0.00 | 0.00 | 0.00 | 74 | 1014.3 |
| 20260904234930 | 0 | 0.0 | 0.0 | 0.00 | 0.00 | 0.00 | |||
| 20260904234458 | 59 | 298 | 4.0 | 7.0 | 0.00 | 0.00 | 0.00 | 74 | 1014.3 |
| 20260904233957 | 59 | 300 | 2.0 | 4.0 | 0.00 | 0.00 | 0.00 | 75 | 1014.2 |
| 20260904233928 | 0 | 0.0 | 0.0 | 0.00 | 0.00 | 0.00 | |||
| 20260904233457 | 59 | 307 | 4.0 | 6.0 | 0.00 | 0.00 | 0.00 | 76 | 1014.2 |
| 20260904233427 | 0 | 0.0 | 0.0 | 0.00 | 0.00 | 0.00 | |||
| 20260904232957 | 59 | 314 | 3.0 | 4.0 | 0.00 | 0.00 | 0.00 | 76 | 1014.2 |
| 20260904232928 | 0 | 0.0 | 0.0 | 0.00 | 0.00 | 0.00 | |||
| 20260904232457 | 59 | 306 | 2.0 | 5.0 | 0.00 | 0.00 | 0.00 | 76 | 1014.2 |
| 20260904232425 | 0 | 0.0 | 0.0 | 0.00 | 0.00 | 0.00 | |||
| 20260904231957 | 59 | 303 | 3.0 | 6.0 | 0.00 | 0.00 | 0.00 | 76 | 1014.2 |
| 20260904231926 | 0 | 0.0 | 0.0 | 0.00 | 0.00 | 0.00 | |||
| 20260904231459 | 59 | 307 | 3.0 | 6.0 | 0.00 | 0.00 | 0.00 | 76 | 1014.2 |
| 20260904231422 | 0 | 0.0 | 0.0 | 0.00 | 0.00 | 0.00 | |||
| 20260904230957 | 59 | 302 | 3.0 | 7.0 | 0.00 | 0.00 | 0.00 | 76 | 1014.3 |
| 20260904230923 | 0 | 0.0 | 0.0 | 0.00 | 0.00 | 0.00 | |||
| 20260904230457 | 59 | 288 | 2.0 | 4.0 | 0.00 | 0.00 | 0.00 | 77 | 1014.2 |
| 20260904230422 | 0 | 0.0 | 0.0 | 0.00 | 0.00 | 0.00 | |||
| 20260904225958 | 59 | 318 | 3.0 | 5.0 | 0.00 | 0.00 | 0.00 | 77 | 1014.3 |
| 20260904225923 | 0 | 0.0 | 0.0 | 0.00 | 0.00 | 0.00 | |||
| 20260904225457 | 59 | 304 | 3.0 | 7.0 | 0.00 | 0.00 | 0.00 | 78 | 1014.2 |
| 20260904224957 | 59 | 306 | 4.0 | 6.0 | 0.00 | 0.00 | 0.00 | 78 | 1014.2 |
| 20260904224923 | 0 | 0.0 | 0.0 | 0.00 | 0.00 | 0.00 | |||
| 20260904224457 | 59 | 307 | 3.0 | 6.0 | 0.00 | 0.00 | 0.00 | 77 | 1014.2 |
| 20260904224422 | 0 | 0.0 | 0.0 | 0.00 | 0.00 | 0.00 | |||
| 20260904223958 | 60 | 307 | 4.0 | 6.0 | 0.00 | 0.00 | 0.00 | 78 | 1014.2 |
| 20260904223923 | 0 | 0.0 | 0.0 | 0.00 | 0.00 | 0.00 | |||
| 20260904223458 | 60 | 300 | 2.0 | 4.0 | 0.00 | 0.00 | 0.00 | 77 | 1014.2 |
| 20260904223422 | 0 | 0.0 | 0.0 | 0.00 | 0.00 | 0.00 | |||
| 20260904222957 | 60 | 292 | 3.0 | 5.0 | 0.00 | 0.00 | 0.00 | 77 | 1014.2 |
| 20260904222923 | 0 | 0.0 | 0.0 | 0.00 | 0.00 | 0.00 | |||
| 20260904222457 | 60 | 307 | 2.0 | 5.0 | 0.00 | 0.00 | 0.00 | 76 | 1014.1 |
| 20260904222423 | 0 | 0.0 | 0.0 | 0.00 | 0.00 | 0.00 | |||
| 20260904221957 | 60 | 284 | 2.0 | 5.0 | 0.00 | 0.00 | 0.00 | 74 | 1014.2 |
| 20260904221921 | 0 | 0.0 | 0.0 | 0.00 | 0.00 | 0.00 | |||
| 20260904221458 | 60 | 302 | 3.0 | 5.0 | 0.00 | 0.00 | 0.00 | 74 | 1014.2 |
| 20260904221420 | 0 | 0.0 | 0.0 | 0.00 | 0.00 | 0.00 | |||
| 20260904220957 | 59 | 301 | 3.0 | 4.0 | 0.00 | 0.00 | 0.00 | 74 | 1014.3 |
| 20260904220457 | 59 | 295 | 3.0 | 7.0 | 0.00 | 0.00 | 0.00 | 75 | 1014.3 |
| 20260904215959 | 59 | 307 | 4.0 | 8.0 | 0.00 | 0.00 | 0.00 | 75 | 1014.4 |
| 20260904215920 | 0 | 0.0 | 0.0 | 0.00 | 0.00 | 0.00 | |||
| 20260904215457 | 60 | 301 | 5.0 | 8.0 | 0.00 | 0.00 | 0.00 | 78 | 1014.3 |
| 20260904215421 | 0 | 0.0 | 0.0 | 0.00 | 0.00 | 0.00 | |||
| 20260904214957 | 60 | 304 | 4.0 | 8.0 | 0.00 | 0.00 | 0.00 | 77 | 1014.3 |
| 20260904214457 | 61 | 291 | 4.0 | 7.0 | 0.00 | 0.00 | 0.00 | 75 | 1014.3 |
| 20260904214421 | 0 | 0.0 | 0.0 | 0.00 | 0.00 | 0.00 | |||
| 20260904213957 | 61 | 285 | 4.0 | 6.0 | 0.00 | 0.00 | 0.00 | 73 | 1014.2 |
| 20260904213921 | 0 | 0.0 | 0.0 | 0.00 | 0.00 | 0.00 | |||
| 20260904213457 | 61 | 293 | 4.0 | 7.0 | 0.00 | 0.00 | 0.00 | 74 | 1014.2 |
| 20260904213421 | 0 | 0.0 | 0.0 | 0.00 | 0.00 | 0.00 | |||
| 20260904212958 | 61 | 312 | 4.0 | 7.0 | 0.00 | 0.00 | 0.00 | 73 | 1014.1 |
| 20260904212922 | 0 | 0.0 | 0.0 | 0.00 | 0.00 | 0.00 | |||
| 20260904212457 | 61 | 305 | 3.0 | 6.0 | 0.00 | 0.00 | 0.00 | 72 | 1014.1 |
| 20260904212421 | 0 | 0.0 | 0.0 | 0.00 | 0.00 | 0.00 | |||
| 20260904211957 | 61 | 292 | 4.0 | 8.0 | 0.00 | 0.00 | 0.00 | 72 | 1014.0 |
| 20260904211921 | 0 | 0.0 | 0.0 | 0.00 | 0.00 | 0.00 | |||
| 20260904211458 | 61 | 292 | 4.0 | 9.0 | 0.00 | 0.00 | 0.00 | 72 | 1013.9 |
| 20260904211419 | 0 | 0.0 | 0.0 | 0.00 | 0.00 | 0.00 | |||
| 20260904210958 | 61 | 314 | 4.0 | 7.0 | 0.00 | 0.00 | 0.00 | 71 | 1013.9 |
| 20260904210918 | 0 | 0.0 | 0.0 | 0.00 | 0.00 | 0.00 | |||
| 20260904210457 | 60 | 266 | 3.0 | 5.0 | 0.00 | 0.00 | 0.00 | 74 | 1013.9 |
| 20260904210419 | 0 | 0.0 | 0.0 | 0.00 | 0.00 | 0.00 | |||
| 20260904205957 | 59 | 289 | 4.0 | 7.0 | 0.00 | 0.00 | 0.00 | 76 | 1014.2 |
| 20260904205918 | 0 | 0.0 | 0.0 | 0.00 | 0.00 | 0.00 | |||
| 20260904205457 | 60 | 310 | 4.0 | 6.0 | 0.00 | 0.00 | 0.00 | 76 | 1014.3 |
| 20260904204957 | 60 | 278 | 2.0 | 6.0 | 0.00 | 0.00 | 0.00 | 75 | 1014.2 |
| 20260904204919 | 0 | 0.0 | 0.0 | 0.00 | 0.00 | 0.00 | |||
| 20260904204457 | 61 | 293 | 4.0 | 8.0 | 0.00 | 0.00 | 0.00 | 73 | 1014.0 |
| 20260904204419 | 0 | 0.0 | 0.0 | 0.00 | 0.00 | 0.00 | |||
| 20260904203959 | 60 | 305 | 5.0 | 10.0 | 0.00 | 0.00 | 0.00 | 74 | 1013.7 |
| 20260904203919 | 0 | 0.0 | 0.0 | 0.00 | 0.00 | 0.00 | |||
| 20260904203457 | 60 | 304 | 5.0 | 9.0 | 0.00 | 0.00 | 0.00 | 76 | 1013.9 |
| 20260904203419 | 0 | 0.0 | 0.0 | 0.00 | 0.00 | 0.00 | |||
| 20260904202957 | 60 | 301 | 2.0 | 3.0 | 0.00 | 0.00 | 0.00 | 73 | 1013.7 |
| 20260904202457 | 59 | 280 | 3.0 | 6.0 | 0.00 | 0.00 | 0.00 | 76 | 1013.8 |
| 20260904202419 | 0 | 0.0 | 0.0 | 0.00 | 0.00 | 0.00 | |||
| 20260904201957 | 59 | 284 | 2.0 | 4.0 | 0.00 | 0.00 | 0.00 | 76 | 1014.0 |
| 20260904201917 | 0 | 0.0 | 0.0 | 0.00 | 0.00 | 0.00 | |||
| 20260904201457 | 59 | 306 | 6.0 | 8.0 | 0.00 | 0.00 | 0.00 | 77 | 1014.0 |
| 20260904200958 | 59 | 300 | 4.0 | 6.0 | 0.00 | 0.00 | 0.00 | 76 | 1014.0 |
| 20260904200916 | 0 | 0.0 | 0.0 | 0.00 | 0.00 | 0.00 | |||
| 20260904200457 | 60 | 295 | 3.0 | 4.0 | 0.00 | 0.00 | 0.00 | 75 | 1013.9 |
| 20260904195957 | 60 | 284 | 5.0 | 9.0 | 0.00 | 0.00 | 0.00 | 74 | 1013.9 |
| 20260904195458 | 60 | 284 | 2.0 | 5.0 | 0.00 | 0.00 | 0.00 | 74 | 1013.8 |
| 20260904194959 | 60 | 298 | 2.0 | 4.0 | 0.00 | 0.00 | 0.00 | 74 | 1013.9 |
| 20260904194917 | 0 | 0.0 | 0.0 | 0.00 | 0.00 | 0.00 | |||
| 20260904194457 | 61 | 290 | 5.0 | 8.0 | 0.00 | 0.00 | 0.00 | 72 | 1013.9 |
| 20260904193957 | 62 | 264 | 4.0 | 6.0 | 0.00 | 0.00 | 0.00 | 70 | 1013.6 |
| 20260904193457 | 62 | 287 | 3.0 | 6.0 | 0.00 | 0.00 | 0.00 | 70 | 1013.5 |
| 20260904192958 | 62 | 314 | 4.0 | 5.0 | 0.00 | 0.00 | 0.00 | 70 | 1013.6 |
| 20260904192917 | 0 | 0.0 | 0.0 | 0.00 | 0.00 | 0.00 | |||
| 20260904192457 | 61 | 234 | 1.0 | 4.0 | 0.00 | 0.00 | 0.00 | 72 | 1013.5 |
| 20260904192417 | 0 | 0.0 | 0.0 | 0.00 | 0.00 | 0.00 | |||
| 20260904191957 | 61 | 302 | 4.0 | 6.0 | 0.00 | 0.00 | 0.00 | 72 | 1013.5 |
| 20260904191917 | 0 | 0.0 | 0.0 | 0.00 | 0.00 | 0.00 | |||
| 20260904191457 | 60 | 292 | 4.0 | 8.0 | 0.00 | 0.00 | 0.00 | 74 | 1013.6 |
| 20260904191415 | 0 | 0.0 | 0.0 | 0.00 | 0.00 | 0.00 | |||
| 20260904190958 | 60 | 284 | 3.0 | 5.0 | 0.00 | 0.00 | 0.00 | 74 | 1013.5 |
| 20260904190914 | 0 | 0.0 | 0.0 | 0.00 | 0.00 | 0.00 | |||
| 20260904190457 | 59 | 269 | 4.0 | 7.0 | 0.00 | 0.00 | 0.00 | 75 | 1013.6 |
| 20260904190415 | 0 | 0.0 | 0.0 | 0.00 | 0.00 | 0.00 | |||
| 20260904185957 | 58 | 169 | 1.0 | 2.0 | 0.00 | 0.00 | 0.00 | 77 | 1013.5 |
| 20260904185914 | 0 | 0.0 | 0.0 | 0.00 | 0.00 | 0.00 | |||
| 20260904185457 | 58 | 298 | 3.0 | 4.0 | 0.00 | 0.00 | 0.00 | 78 | 1013.6 |
| 20260904185415 | 0 | 0.0 | 0.0 | 0.00 | 0.00 | 0.00 | |||
| 20260904184958 | 57 | 305 | 2.0 | 5.0 | 0.00 | 0.00 | 0.00 | 82 | 1013.7 |
| 20260904184914 | 0 | 0.0 | 0.0 | 0.00 | 0.00 | 0.00 | |||
| 20260904184457 | 57 | 311 | 2.0 | 3.0 | 0.00 | 0.00 | 0.00 | 83 | 1013.7 |
| 20260904184415 | 0 | 0.0 | 0.0 | 0.00 | 0.00 | 0.00 | |||
| 20260904183957 | 57 | 265 | 4.0 | 6.0 | 0.00 | 0.00 | 0.00 | 83 | 1013.8 |
| 20260904183915 | 0 | 0.0 | 0.0 | 0.00 | 0.00 | 0.00 | |||
| 20260904183457 | 57 | 305 | 2.0 | 4.0 | 0.00 | 0.00 | 0.00 | 83 | 1013.7 |
| 20260904182957 | 57 | 261 | 2.0 | 3.0 | 0.00 | 0.00 | 0.00 | 84 | 1013.7 |
| 20260904182914 | 0 | 0.0 | 0.0 | 0.00 | 0.00 | 0.00 | |||
| 20260904182458 | 56 | 289 | 1.0 | 2.0 | 0.00 | 0.00 | 0.00 | 85 | 1013.8 |
| 20260904182413 | 0 | 0.0 | 0.0 | 0.00 | 0.00 | 0.00 | |||
| 20260904181957 | 57 | 249 | 2.0 | 4.0 | 0.00 | 0.00 | 0.00 | 84 | 1013.7 |
| 20260904181913 | 0 | 0.0 | 0.0 | 0.00 | 0.00 | 0.00 | |||
| 20260904181459 | 57 | 306 | 2.0 | 4.0 | 0.00 | 0.00 | 0.00 | 83 | 1013.7 |
| 20260904181413 | 0 | 0.0 | 0.0 | 0.00 | 0.00 | 0.00 | |||
| 20260904180957 | 58 | 301 | 2.0 | 5.0 | 0.00 | 0.00 | 0.00 | 82 | 1013.6 |
| 20260904180912 | 0 | 0.0 | 0.0 | 0.00 | 0.00 | 0.00 | |||
| 20260904180457 | 57 | 254 | 3.0 | 4.0 | 0.00 | 0.00 | 0.00 | 82 | 1013.5 |
| 20260904180413 | 0 | 0.0 | 0.0 | 0.00 | 0.00 | 0.00 | |||
| 20260904175957 | 58 | 260 | 2.0 | 5.0 | 0.00 | 0.00 | 0.00 | 82 | 1013.5 |
| 20260904175913 | 0 | 0.0 | 0.0 | 0.00 | 0.00 | 0.00 | |||
| 20260904175457 | 58 | 292 | 2.0 | 4.0 | 0.00 | 0.00 | 0.00 | 81 | 1013.4 |
| 20260904175413 | 0 | 0.0 | 0.0 | 0.00 | 0.00 | 0.00 | |||
| 20260904174958 | 58 | 280 | 3.0 | 5.0 | 0.00 | 0.00 | 0.00 | 81 | 1013.5 |
| 20260904174913 | 0 | 0.0 | 0.0 | 0.00 | 0.00 | 0.00 | |||
| 20260904174457 | 58 | 265 | 4.0 | 6.0 | 0.00 | 0.00 | 0.00 | 81 | 1013.5 |
| 20260904174413 | 0 | 0.0 | 0.0 | 0.00 | 0.00 | 0.00 | |||
| 20260904173958 | 58 | 325 | 2.0 | 4.0 | 0.00 | 0.00 | 0.00 | 81 | 1013.4 |
| 20260904173913 | 0 | 0.0 | 0.0 | 0.00 | 0.00 | 0.00 | |||
| 20260904173457 | 57 | 297 | 1.0 | 2.0 | 0.00 | 0.00 | 0.00 | 81 | 1013.5 |
| 20260904173413 | 0 | 0.0 | 0.0 | 0.00 | 0.00 | 0.00 | |||
| 20260904172958 | 57 | 276 | 3.0 | 6.0 | 0.00 | 0.00 | 0.00 | 81 | 1013.5 |
| 20260904172914 | 0 | 0.0 | 0.0 | 0.00 | 0.00 | 0.00 | |||
| 20260904172458 | 57 | 231 | 1.0 | 2.0 | 0.00 | 0.00 | 0.00 | 81 | 1013.4 |
| 20260904171959 | 56 | 287 | 2.0 | 5.0 | 0.00 | 0.00 | 0.00 | 82 | 1013.4 |
| 20260904171910 | 0 | 0.0 | 0.0 | 0.00 | 0.00 | 0.00 | |||
| 20260904171458 | 56 | 225 | 2.0 | 4.0 | 0.00 | 0.00 | 0.00 | 82 | 1013.4 |
| 20260904171411 | 0 | 0.0 | 0.0 | 0.00 | 0.00 | 0.00 | |||
| 20260904170957 | 55 | 159 | 3.0 | 5.0 | 0.00 | 0.00 | 0.00 | 84 | 1013.4 |
| 20260904170910 | 0 | 0.0 | 0.0 | 0.00 | 0.00 | 0.00 | |||
| 20260904170457 | 55 | 171 | 3.0 | 4.0 | 0.00 | 0.00 | 0.00 | 84 | 1013.4 |
| 20260904165959 | 55 | 179 | 3.0 | 5.0 | 0.00 | 0.00 | 0.00 | 84 | 1013.3 |
| 20260904165457 | 55 | 177 | 2.0 | 3.0 | 0.00 | 0.00 | 0.00 | 85 | 1013.3 |
| 20260904164957 | 55 | 183 | 2.0 | 2.0 | 0.00 | 0.00 | 0.00 | 86 | 1013.3 |
| 20260904164457 | 55 | 191 | 1.0 | 3.0 | 0.00 | 0.00 | 0.00 | 86 | 1013.3 |
| 20260904164409 | 0 | 0.0 | 0.0 | 0.00 | 0.00 | 0.00 | |||
| 20260904163957 | 55 | 189 | 2.0 | 4.0 | 0.00 | 0.00 | 0.00 | 85 | 1013.3 |
| 20260904163909 | 0 | 0.0 | 0.0 | 0.00 | 0.00 | 0.00 | |||
| 20260904163457 | 55 | 179 | 3.0 | 3.0 | 0.00 | 0.00 | 0.00 | 85 | 1013.3 |
| 20260904163409 | 0 | 0.0 | 0.0 | 0.00 | 0.00 | 0.00 | |||
| 20260904162959 | 56 | 166 | 2.0 | 3.0 | 0.00 | 0.00 | 0.00 | 84 | 1013.3 |
| 20260904162910 | 0 | 0.0 | 0.0 | 0.00 | 0.00 | 0.00 | |||
| 20260904162458 | 56 | 227 | 1.0 | 3.0 | 0.00 | 0.00 | 0.00 | 85 | 1013.2 |
| 20260904162002 | 55 | 107 | 0.0 | 2.0 | 0.00 | 0.00 | 0.00 | 85 | 1013.2 |
| 20260904161909 | 0 | 0.0 | 0.0 | 0.00 | 0.00 | 0.00 | |||
| 20260904161457 | 55 | 185 | 2.0 | 2.0 | 0.00 | 0.00 | 0.00 | 84 | 1013.1 |
| 20260904161410 | 0 | 0.0 | 0.0 | 0.00 | 0.00 | 0.00 | |||
| 20260904160959 | 55 | 134 | 0.0 | 1.0 | 0.00 | 0.00 | 0.00 | 86 | 1013.2 |
| 20260904160910 | 0 | 0.0 | 0.0 | 0.00 | 0.00 | 0.00 | |||
| 20260904160457 | 55 | 195 | 1.0 | 3.0 | 0.00 | 0.00 | 0.00 | 86 | 1013.2 |
| 20260904155957 | 55 | 360 | 0.0 | 0.0 | 0.00 | 0.00 | 0.00 | 87 | 1013.2 |
| 20260904155459 | 55 | 360 | 0.0 | 0.0 | 0.00 | 0.00 | 0.00 | 88 | 1013.1 |
| 20260904155356 | 0 | 0.0 | 0.0 | 0.00 | 0.00 | 0.00 | |||
| 20260904154958 | 55 | 292 | 2.0 | 3.0 | 0.00 | 0.00 | 0.00 | 88 | 1013.1 |
| 20260904154857 | 0 | 0.0 | 0.0 | 0.00 | 0.00 | 0.00 | |||
| 20260904154457 | 55 | 331 | 0.0 | 1.0 | 0.00 | 0.00 | 0.00 | 88 | 1013.1 |
| 20260904154357 | 0 | 0.0 | 0.0 | 0.00 | 0.00 | 0.00 | |||
| 20260904153958 | 55 | 13 | 1.0 | 2.0 | 0.00 | 0.00 | 0.00 | 88 | 1013.1 |
| 20260904153857 | 0 | 0.0 | 0.0 | 0.00 | 0.00 | 0.00 | |||
| 20260904153458 | 55 | 283 | 2.0 | 4.0 | 0.00 | 0.00 | 0.00 | 88 | 1013.0 |
| 20260904152957 | 55 | 308 | 1.0 | 2.0 | 0.00 | 0.00 | 0.00 | 88 | 1013.0 |
| 20260904152853 | 0 | 0.0 | 0.0 | 0.00 | 0.00 | 0.00 | |||
| 20260904152457 | 55 | 251 | 1.0 | 2.0 | 0.00 | 0.00 | 0.00 | 88 | 1012.8 |
| 20260904152352 | 0 | 0.0 | 0.0 | 0.00 | 0.00 | 0.00 | |||
| 20260904151958 | 54 | 303 | 1.0 | 4.0 | 0.00 | 0.00 | 0.00 | 88 | 1013.0 |
| 20260904151852 | 0 | 0.0 | 0.0 | 0.00 | 0.00 | 0.00 | |||
| 20260904151500 | 54 | 251 | 0.0 | 2.0 | 0.00 | 0.00 | 0.00 | 88 | 1012.8 |
| 20260904150957 | 54 | 259 | 1.0 | 2.0 | 0.00 | 0.00 | 0.00 | 88 | 1012.8 |
| 20260904150852 | 0 | 0.0 | 0.0 | 0.00 | 0.00 | 0.00 | |||
| 20260904150458 | 54 | 318 | 0.0 | 4.0 | 0.00 | 0.00 | 0.00 | 89 | 1012.7 |
| 20260904150353 | 0 | 0.0 | 0.0 | 0.00 | 0.00 | 0.00 | |||
| 20260904145958 | 54 | 311 | 2.0 | 4.0 | 0.00 | 0.00 | 0.00 | 89 | 1012.7 |
| 20260904145852 | 0 | 0.0 | 0.0 | 0.00 | 0.00 | 0.00 | |||
| 20260904145457 | 54 | 272 | 0.0 | 1.0 | 0.00 | 0.00 | 0.00 | 89 | 1012.7 |
| 20260904145353 | 0 | 0.0 | 0.0 | 0.00 | 0.00 | 0.00 | |||
| 20260904144957 | 54 | 214 | 0.0 | 0.0 | 0.00 | 0.00 | 0.00 | 89 | 1012.7 |
| 20260904144852 | 0 | 0.0 | 0.0 | 0.00 | 0.00 | 0.00 | |||
| 20260904144457 | 54 | 321 | 0.0 | 2.0 | 0.00 | 0.00 | 0.00 | 90 | 1012.7 |
| 20260904144352 | 0 | 0.0 | 0.0 | 0.00 | 0.00 | 0.00 | |||
| 20260904143957 | 54 | 315 | 2.0 | 3.0 | 0.00 | 0.00 | 0.00 | 90 | 1012.5 |
| 20260904143853 | 0 | 0.0 | 0.0 | 0.00 | 0.00 | 0.00 | |||
| 20260904143457 | 54 | 313 | 2.0 | 4.0 | 0.00 | 0.00 | 0.00 | 89 | 1012.5 |
| 20260904143353 | 0 | 0.0 | 0.0 | 0.00 | 0.00 | 0.00 | |||
| 20260904143001 | 54 | 303 | 1.0 | 2.0 | 0.00 | 0.00 | 0.00 | 89 | 1012.4 |
| 20260904142852 | 0 | 0.0 | 0.0 | 0.00 | 0.00 | 0.00 | |||
| 20260904142457 | 54 | 278 | 0.0 | 1.0 | 0.00 | 0.00 | 0.00 | 88 | 1012.4 |
| 20260904142353 | 0 | 0.0 | 0.0 | 0.00 | 0.00 | 0.00 | |||
| 20260904141957 | 53 | 315 | 1.0 | 2.0 | 0.00 | 0.00 | 0.00 | 87 | 1012.4 |
| 20260904141853 | 0 | 0.0 | 0.0 | 0.00 | 0.00 | 0.00 | |||
| 20260904141457 | 53 | 67 | 0.0 | 2.0 | 0.00 | 0.00 | 0.00 | 87 | 1012.4 |
| 20260904141353 | 0 | 0.0 | 0.0 | 0.00 | 0.00 | 0.00 | |||
| 20260904140958 | 53 | 93 | 3.0 | 4.0 | 0.00 | 0.00 | 0.00 | 87 | 1012.3 |
| 20260904140853 | 0 | 0.0 | 0.0 | 0.00 | 0.00 | 0.00 | |||
| 20260904140458 | 53 | 132 | 2.0 | 2.0 | 0.00 | 0.00 | 0.00 | 89 | 1012.3 |
| 20260904140353 | 0 | 0.0 | 0.0 | 0.00 | 0.00 | 0.00 | |||
| 20260904135958 | 53 | 325 | 0.0 | 1.0 | 0.00 | 0.00 | 0.00 | 89 | 1012.2 |
| 20260904135853 | 0 | 0.0 | 0.0 | 0.00 | 0.00 | 0.00 | |||
| 20260904135458 | 53 | 307 | 0.0 | 1.0 | 0.00 | 0.00 | 0.00 | 89 | 1012.1 |
| 20260904135352 | 0 | 0.0 | 0.0 | 0.00 | 0.00 | 0.00 | |||
| 20260904134957 | 54 | 360 | 0.0 | 0.0 | 0.00 | 0.00 | 0.00 | 89 | 1012.1 |
| 20260904134853 | 0 | 0.0 | 0.0 | 0.00 | 0.00 | 0.00 | |||
| 20260904134458 | 54 | 360 | 0.0 | 0.0 | 0.00 | 0.00 | 0.00 | 89 | 1012.0 |
| 20260904134354 | 0 | 0.0 | 0.0 | 0.00 | 0.00 | 0.00 | |||
| 20260904133958 | 54 | 360 | 0.0 | 0.0 | 0.00 | 0.00 | 0.00 | 89 | 1012.0 |
| 20260904133853 | 0 | 0.0 | 0.0 | 0.00 | 0.00 | 0.00 | |||
| 20260904133457 | 54 | 22 | 0.0 | 1.0 | 0.00 | 0.00 | 0.00 | 89 | 1011.9 |
| 20260904133356 | 0 | 0.0 | 0.0 | 0.00 | 0.00 | 0.00 | |||
| 20260904132959 | 54 | 317 | 1.0 | 2.0 | 0.00 | 0.00 | 0.00 | 89 | 1011.9 |
| 20260904132852 | 0 | 0.0 | 0.0 | 0.00 | 0.00 | 0.00 | |||
| 20260904132502 | 54 | 299 | 0.0 | 2.0 | 0.00 | 0.00 | 0.00 | 89 | 1012.0 |
| 20260904132351 | 0 | 0.0 | 0.0 | 0.00 | 0.00 | 0.00 | |||
| 20260904131958 | 54 | 306 | 1.0 | 2.0 | 0.00 | 0.00 | 0.00 | 88 | 1011.9 |
| 20260904131856 | 0 | 0.0 | 0.0 | 0.00 | 0.00 | 0.00 | |||
| 20260904131457 | 54 | 329 | 3.0 | 4.0 | 0.00 | 0.00 | 0.00 | 88 | 1011.8 |
| 20260904131351 | 0 | 0.0 | 0.0 | 0.00 | 0.00 | 0.00 | |||
| 20260904130957 | 54 | 322 | 3.0 | 4.0 | 0.00 | 0.00 | 0.00 | 88 | 1011.8 |
| 20260904130852 | 0 | 0.0 | 0.0 | 0.00 | 0.00 | 0.00 | |||
| 20260904130458 | 54 | 328 | 2.0 | 3.0 | 0.00 | 0.00 | 0.00 | 88 | 1011.8 |
| 20260904130351 | 0 | 0.0 | 0.0 | 0.00 | 0.00 | 0.00 | |||
| 20260904125958 | 53 | 313 | 1.0 | 3.0 | 0.00 | 0.00 | 0.00 | 88 | 1011.8 |
| 20260904125849 | 0 | 0.0 | 0.0 | 0.00 | 0.00 | 0.00 | |||
| 20260904125458 | 53 | 339 | 3.0 | 5.0 | 0.00 | 0.00 | 0.00 | 88 | 1011.8 |
| 20260904125345 | 0 | 0.0 | 0.0 | 0.00 | 0.00 | 0.00 | |||
| 20260904124957 | 53 | 323 | 1.0 | 2.0 | 0.00 | 0.00 | 0.00 | 87 | 1011.8 |
| 20260904124846 | 0 | 0.0 | 0.0 | 0.00 | 0.00 | 0.00 | |||
| 20260904124500 | 53 | 303 | 0.0 | 1.0 | 0.00 | 0.00 | 0.00 | 87 | 1011.8 |
| 20260904124345 | 0 | 0.0 | 0.0 | 0.00 | 0.00 | 0.00 | |||
| 20260904123957 | 53 | 360 | 0.0 | 0.0 | 0.00 | 0.00 | 0.00 | 86 | 1011.7 |
| 20260904123845 | 0 | 0.0 | 0.0 | 0.00 | 0.00 | 0.00 | |||
| 20260904123458 | 53 | 46 | 1.0 | 2.0 | 0.00 | 0.00 | 0.00 | 86 | 1011.6 |
| 20260904123342 | 0 | 0.0 | 0.0 | 0.00 | 0.00 | 0.00 | |||
| 20260904122957 | 53 | 46 | 1.0 | 2.0 | 0.00 | 0.00 | 0.00 | 85 | 1011.7 |
| 20260904122843 | 0 | 0.0 | 0.0 | 0.00 | 0.00 | 0.00 | |||
| 20260904122457 | 53 | 34 | 1.0 | 2.0 | 0.00 | 0.00 | 0.00 | 85 | 1011.7 |
| 20260904122342 | 0 | 0.0 | 0.0 | 0.00 | 0.00 | 0.00 | |||
| 20260904121957 | 53 | 47 | 1.0 | 2.0 | 0.00 | 0.00 | 0.00 | 86 | 1011.6 |
| 20260904121844 | 0 | 0.0 | 0.0 | 0.00 | 0.00 | 0.00 | |||
| 20260904121457 | 53 | 49 | 0.0 | 2.0 | 0.00 | 0.00 | 0.00 | 86 | 1011.5 |
| 20260904121342 | 0 | 0.0 | 0.0 | 0.00 | 0.00 | 0.00 | |||
| 20260904120957 | 53 | 40 | 0.0 | 1.0 | 0.00 | 0.00 | 0.00 | 85 | 1011.5 |
| 20260904120457 | 53 | 154 | 0.0 | 1.0 | 0.00 | 0.00 | 0.00 | 86 | 1011.5 |
| 20260904120342 | 0 | 0.0 | 0.0 | 0.00 | 0.00 | 0.00 | |||
| 20260904115957 | 54 | 61 | 0.0 | 2.0 | 0.00 | 0.00 | 0.00 | 87 | 1011.4 |
| 20260904115843 | 0 | 0.0 | 0.0 | 0.00 | 0.00 | 0.00 | |||
| 20260904115457 | 54 | 159 | 1.0 | 2.0 | 0.00 | 0.00 | 0.00 | 87 | 1011.4 |
| 20260904115343 | 0 | 0.0 | 0.0 | 0.00 | 0.00 | 0.00 | |||
| 20260904114957 | 54 | 205 | 0.0 | 2.0 | 0.00 | 0.00 | 0.00 | 87 | 1011.4 |
| 20260904114843 | 0 | 0.0 | 0.0 | 0.00 | 0.00 | 0.00 | |||
| 20260904114459 | 54 | 320 | 0.0 | 2.0 | 0.00 | 0.00 | 0.00 | 87 | 1011.2 |
| 20260904114343 | 0 | 0.0 | 0.0 | 0.00 | 0.00 | 0.00 | |||
| 20260904113957 | 54 | 338 | 2.0 | 4.0 | 0.00 | 0.00 | 0.00 | 87 | 1011.2 |
| 20260904113841 | 0 | 0.0 | 0.0 | 0.00 | 0.00 | 0.00 | |||
| 20260904113457 | 54 | 335 | 2.0 | 4.0 | 0.00 | 0.00 | 0.00 | 87 | 1011.2 |
| 20260904113003 | 54 | 318 | 3.0 | 6.0 | 0.00 | 0.00 | 0.00 | 87 | 1011.1 |
| 20260904112840 | 0 | 0.0 | 0.0 | 0.00 | 0.00 | 0.00 | |||
| 20260904112457 | 54 | 339 | 1.0 | 4.0 | 0.00 | 0.00 | 0.00 | 86 | 1011.1 |
| 20260904112340 | 0 | 0.0 | 0.0 | 0.00 | 0.00 | 0.00 | |||
| 20260904111957 | 54 | 320 | 1.0 | 2.0 | 0.00 | 0.00 | 0.00 | 86 | 1011.0 |
| 20260904111841 | 0 | 0.0 | 0.0 | 0.00 | 0.00 | 0.00 | |||
| 20260904111458 | 54 | 323 | 3.0 | 6.0 | 0.00 | 0.00 | 0.00 | 85 | 1011.0 |
| 20260904111342 | 0 | 0.0 | 0.0 | 0.00 | 0.00 | 0.00 | |||
| 20260904110957 | 54 | 316 | 0.0 | 2.0 | 0.00 | 0.00 | 0.00 | 83 | 1011.1 |
| 20260904110841 | 0 | 0.0 | 0.0 | 0.00 | 0.00 | 0.00 | |||
| 20260904110458 | 54 | 117 | 1.0 | 2.0 | 0.00 | 0.00 | 0.00 | 84 | 1011.1 |
| 20260904105958 | 54 | 27 | 0.0 | 2.0 | 0.00 | 0.00 | 0.00 | 82 | 1011.1 |
| 20260904105841 | 0 | 0.0 | 0.0 | 0.00 | 0.00 | 0.00 | |||
| 20260904105459 | 54 | 76 | 0.0 | 2.0 | 0.00 | 0.00 | 0.00 | 82 | 1011.0 |
| 20260904105341 | 0 | 0.0 | 0.0 | 0.00 | 0.00 | 0.00 | |||
| 20260904104957 | 54 | 102 | 1.0 | 2.0 | 0.00 | 0.00 | 0.00 | 82 | 1011.0 |
| 20260904104839 | 0 | 0.0 | 0.0 | 0.00 | 0.00 | 0.00 | |||
| 20260904104457 | 54 | 47 | 0.0 | 1.0 | 0.00 | 0.00 | 0.00 | 84 | 1010.9 |
| 20260904104339 | 0 | 0.0 | 0.0 | 0.00 | 0.00 | 0.00 | |||
| 20260904103957 | 54 | 338 | 1.0 | 2.0 | 0.00 | 0.00 | 0.00 | 83 | 1010.9 |
| 20260904103838 | 0 | 0.0 | 0.0 | 0.00 | 0.00 | 0.00 | |||
| 20260904103457 | 54 | 351 | 0.0 | 2.0 | 0.00 | 0.00 | 0.00 | 82 | 1010.9 |
| 20260904103339 | 0 | 0.0 | 0.0 | 0.00 | 0.00 | 0.00 | |||
| 20260904102958 | 54 | 146 | 0.0 | 1.0 | 0.00 | 0.00 | 0.00 | 82 | 1010.9 |
| 20260904102838 | 0 | 0.0 | 0.0 | 0.00 | 0.00 | 0.00 | |||
| 20260904102457 | 54 | 124 | 0.0 | 1.0 | 0.00 | 0.00 | 0.00 | 82 | 1010.9 |
| 20260904102339 | 0 | 0.0 | 0.0 | 0.00 | 0.00 | 0.00 | |||
| 20260904101957 | 54 | 59 | 0.0 | 2.0 | 0.00 | 0.00 | 0.00 | 82 | 1010.9 |
| 20260904101844 | 0 | 0.0 | 0.0 | 0.00 | 0.00 | 0.00 | |||
| 20260904101458 | 54 | 14 | 0.0 | 2.0 | 0.00 | 0.00 | 0.00 | 84 | 1010.9 |
| 20260904101339 | 0 | 0.0 | 0.0 | 0.00 | 0.00 | 0.00 | |||
| 20260904100957 | 54 | 349 | 1.0 | 2.0 | 0.00 | 0.00 | 0.00 | 84 | 1010.9 |
| 20260904100839 | 0 | 0.0 | 0.0 | 0.00 | 0.00 | 0.00 | |||
| 20260904100458 | 54 | 341 | 1.0 | 2.0 | 0.00 | 0.00 | 0.00 | 83 | 1010.8 |
| 20260904100339 | 0 | 0.0 | 0.0 | 0.00 | 0.00 | 0.00 | |||
| 20260904095957 | 54 | 332 | 2.0 | 3.0 | 0.00 | 0.00 | 0.00 | 84 | 1010.8 |
| 20260904095839 | 0 | 0.0 | 0.0 | 0.00 | 0.00 | 0.00 | |||
| 20260904095457 | 54 | 341 | 3.0 | 5.0 | 0.00 | 0.00 | 0.00 | 84 | 1010.8 |
| 20260904094957 | 55 | 336 | 2.0 | 4.0 | 0.00 | 0.00 | 0.00 | 83 | 1010.7 |
| 20260904094837 | 0 | 0.0 | 0.0 | 0.00 | 0.00 | 0.00 | |||
| 20260904094457 | 54 | 341 | 3.0 | 6.0 | 0.00 | 0.00 | 0.00 | 83 | 1010.7 |
| 20260904093957 | 54 | 336 | 3.0 | 5.0 | 0.00 | 0.00 | 0.00 | 82 | 1010.7 |
| 20260904093837 | 0 | 0.0 | 0.0 | 0.00 | 0.00 | 0.00 | |||
| 20260904093500 | 54 | 332 | 3.0 | 4.0 | 0.00 | 0.00 | 0.00 | 83 | 1010.8 |
| 20260904093337 | 0 | 0.0 | 0.0 | 0.00 | 0.00 | 0.00 | |||
| 20260904092957 | 54 | 338 | 2.0 | 4.0 | 0.00 | 0.00 | 0.00 | 82 | 1010.8 |
| 20260904092837 | 0 | 0.0 | 0.0 | 0.00 | 0.00 | 0.00 | |||
| 20260904092457 | 54 | 356 | 2.0 | 3.0 | 0.00 | 0.00 | 0.00 | 82 | 1010.9 |
| 20260904091957 | 53 | 350 | 2.0 | 4.0 | 0.00 | 0.00 | 0.00 | 83 | 1010.9 |
| 20260904091457 | 53 | 330 | 2.0 | 3.0 | 0.00 | 0.00 | 0.00 | 81 | 1010.9 |
| 20260904091337 | 0 | 0.0 | 0.0 | 0.00 | 0.00 | 0.00 | |||
| 20260904090958 | 53 | 39 | 1.0 | 3.0 | 0.00 | 0.00 | 0.00 | 81 | 1010.9 |
| 20260904090838 | 0 | 0.0 | 0.0 | 0.00 | 0.00 | 0.00 | |||
| 20260904090457 | 53 | 28 | 2.0 | 3.0 | 0.00 | 0.00 | 0.00 | 81 | 1011.0 |
| 20260904090337 | 0 | 0.0 | 0.0 | 0.00 | 0.00 | 0.00 | |||
| 20260904085957 | 52 | 45 | 1.0 | 3.0 | 0.00 | 0.00 | 0.00 | 82 | 1011.0 |
| 20260904085834 | 0 | 0.0 | 0.0 | 0.00 | 0.00 | 0.00 | |||
| 20260904085457 | 52 | 13 | 2.0 | 3.0 | 0.00 | 0.00 | 0.00 | 81 | 1011.0 |
| 20260904085331 | 0 | 0.0 | 0.0 | 0.00 | 0.00 | 0.00 | |||
| 20260904084957 | 53 | 15 | 2.0 | 3.0 | 0.00 | 0.00 | 0.00 | 81 | 1011.0 |
| 20260904084831 | 0 | 0.0 | 0.0 | 0.00 | 0.00 | 0.00 | |||
| 20260904084457 | 53 | 37 | 2.0 | 3.0 | 0.00 | 0.00 | 0.00 | 81 | 1011.0 |
| 20260904084332 | 0 | 0.0 | 0.0 | 0.00 | 0.00 | 0.00 | |||
| 20260904083957 | 53 | 19 | 2.0 | 4.0 | 0.00 | 0.00 | 0.00 | 81 | 1011.0 |
| 20260904083828 | 0 | 0.0 | 0.0 | 0.00 | 0.00 | 0.00 | |||
| 20260904083457 | 53 | 26 | 2.0 | 3.0 | 0.00 | 0.00 | 0.00 | 81 | 1011.1 |
| 20260904083328 | 0 | 0.0 | 0.0 | 0.00 | 0.00 | 0.00 | |||
| 20260904082957 | 52 | 26 | 1.0 | 3.0 | 0.00 | 0.00 | 0.00 | 80 | 1011.1 |
| 20260904082829 | 0 | 0.0 | 0.0 | 0.00 | 0.00 | 0.00 | |||
| 20260904082457 | 53 | 33 | 1.0 | 3.0 | 0.00 | 0.00 | 0.00 | 79 | 1011.1 |
| 20260904081957 | 53 | 41 | 2.0 | 3.0 | 0.00 | 0.00 | 0.00 | 79 | 1011.1 |
| 20260904081829 | 0 | 0.0 | 0.0 | 0.00 | 0.00 | 0.00 | |||
| 20260904081457 | 53 | 38 | 1.0 | 3.0 | 0.00 | 0.00 | 0.00 | 80 | 1011.2 |
| 20260904081329 | 0 | 0.0 | 0.0 | 0.00 | 0.00 | 0.00 | |||
| 20260904080957 | 53 | 38 | 2.0 | 3.0 | 0.00 | 0.00 | 0.00 | 79 | 1011.2 |
| 20260904080834 | 0 | 0.0 | 0.0 | 0.00 | 0.00 | 0.00 | |||
| 20260904080457 | 53 | 46 | 2.0 | 3.0 | 0.00 | 0.00 | 0.00 | 79 | 1011.2 |
| 20260904080329 | 0 | 0.0 | 0.0 | 0.00 | 0.00 | 0.00 | |||
| 20260904075958 | 53 | 352 | 2.0 | 4.0 | 0.00 | 0.00 | 0.00 | 80 | 1011.2 |
| 20260904075826 | 0 | 0.0 | 0.0 | 0.00 | 0.00 | 0.00 | |||
| 20260904075457 | 53 | 11 | 1.0 | 2.0 | 0.00 | 0.00 | 0.00 | 77 | 1011.3 |
| 20260904075327 | 0 | 0.0 | 0.0 | 0.00 | 0.00 | 0.00 | |||
| 20260904074957 | 53 | 3 | 1.0 | 3.0 | 0.00 | 0.00 | 0.00 | 76 | 1011.2 |
| 20260904074826 | 0 | 0.0 | 0.0 | 0.00 | 0.00 | 0.00 | |||
| 20260904074457 | 53 | 37 | 2.0 | 3.0 | 0.00 | 0.00 | 0.00 | 76 | 1011.1 |
| 20260904074327 | 0 | 0.0 | 0.0 | 0.00 | 0.00 | 0.00 | |||
| 20260904073959 | 53 | 68 | 1.0 | 3.0 | 0.00 | 0.00 | 0.00 | 77 | 1011.1 |
| 20260904073827 | 0 | 0.0 | 0.0 | 0.00 | 0.00 | 0.00 | |||
| 20260904073457 | 53 | 41 | 1.0 | 3.0 | 0.00 | 0.00 | 0.00 | 77 | 1011.1 |
| 20260904073324 | 0 | 0.0 | 0.0 | 0.00 | 0.00 | 0.00 | |||
| 20260904072957 | 53 | 47 | 2.0 | 3.0 | 0.00 | 0.00 | 0.00 | 77 | 1011.0 |
| 20260904072824 | 0 | 0.0 | 0.0 | 0.00 | 0.00 | 0.00 | |||
| 20260904072457 | 53 | 2 | 2.0 | 4.0 | 0.00 | 0.00 | 0.00 | 78 | 1011.0 |
| 20260904072323 | 0 | 0.0 | 0.0 | 0.00 | 0.00 | 0.00 | |||
| 20260904071957 | 54 | 12 | 1.0 | 3.0 | 0.00 | 0.00 | 0.00 | 78 | 1011.0 |
| 20260904071824 | 0 | 0.0 | 0.0 | 0.00 | 0.00 | 0.00 | |||
| 20260904071457 | 54 | 40 | 2.0 | 2.0 | 0.00 | 0.00 | 0.00 | 78 | 1011.0 |
| 20260904071324 | 0 | 0.0 | 0.0 | 0.00 | 0.00 | 0.00 | |||
| 20260904070958 | 55 | 337 | 2.0 | 4.0 | 0.00 | 0.00 | 0.00 | 79 | 1010.9 |
| 20260904070457 | 55 | 346 | 1.0 | 2.0 | 0.00 | 0.00 | 0.00 | 80 | 1010.9 |
| 20260904065957 | 55 | 333 | 3.0 | 5.0 | 0.00 | 0.00 | 0.02 | 79 | 1010.9 |
| 20260904065821 | 0 | 0.0 | 0.0 | 0.00 | 0.00 | 0.00 | |||
| 20260904065457 | 55 | 334 | 3.0 | 5.0 | 0.00 | 0.00 | 0.02 | 78 | 1010.9 |
| 20260904065321 | 0 | 0.0 | 0.0 | 0.00 | 0.00 | 0.00 | |||
| 20260904064957 | 55 | 330 | 4.0 | 6.0 | 0.00 | 0.00 | 0.02 | 76 | 1010.9 |
| 20260904064822 | 0 | 0.0 | 0.0 | 0.00 | 0.00 | 0.00 | |||
| 20260904064457 | 54 | 334 | 2.0 | 5.0 | 0.00 | 0.00 | 0.02 | 77 | 1010.9 |
| 20260904063957 | 54 | 24 | 1.0 | 3.0 | 0.00 | 0.00 | 0.02 | 76 | 1011.0 |
| 20260904063822 | 0 | 0.0 | 0.0 | 0.00 | 0.00 | 0.00 | |||
| 20260904063457 | 54 | 346 | 2.0 | 3.0 | 0.00 | 0.00 | 0.02 | 76 | 1011.0 |
| 20260904063321 | 0 | 0.0 | 0.0 | 0.00 | 0.00 | 0.00 | |||
| 20260904062957 | 54 | 6 | 1.0 | 2.0 | 0.00 | 0.00 | 0.02 | 75 | 1011.0 |
| 20260904062821 | 0 | 0.0 | 0.0 | 0.00 | 0.00 | 0.00 | |||
| 20260904062457 | 55 | 1 | 2.0 | 3.0 | 0.00 | 0.00 | 0.02 | 75 | 1011.0 |
| 20260904062322 | 0 | 0.0 | 0.0 | 0.00 | 0.00 | 0.00 | |||
| 20260904061957 | 55 | 326 | 2.0 | 3.0 | 0.00 | 0.00 | 0.02 | 76 | 1011.0 |
| 20260904061822 | 0 | 0.0 | 0.0 | 0.00 | 0.00 | 0.00 | |||
| 20260904061459 | 54 | 356 | 2.0 | 5.0 | 0.00 | 0.00 | 0.02 | 76 | 1011.0 |
| 20260904061324 | 0 | 0.0 | 0.0 | 0.00 | 0.00 | 0.00 | |||
| 20260904060957 | 54 | 334 | 3.0 | 5.0 | 0.00 | 0.00 | 0.02 | 77 | 1011.0 |
| 20260904060828 | 0 | 0.0 | 0.0 | 0.00 | 0.00 | 0.00 | |||
| 20260904060458 | 54 | 33 | 1.0 | 2.0 | 0.00 | 0.00 | 0.02 | 76 | 1011.0 |
| 20260904055957 | 54 | 30 | 1.0 | 3.0 | 0.00 | 0.00 | 0.02 | 76 | 1011.0 |
| 20260904055821 | 0 | 0.0 | 0.0 | 0.00 | 0.00 | 0.00 | |||
| 20260904055458 | 54 | 43 | 2.0 | 3.0 | 0.00 | 0.00 | 0.02 | 75 | 1010.9 |
| 20260904054958 | 54 | 21 | 2.0 | 3.0 | 0.00 | 0.00 | 0.02 | 75 | 1010.9 |
| 20260904054821 | 0 | 0.0 | 0.0 | 0.00 | 0.00 | 0.00 | |||
| 20260904054457 | 54 | 40 | 2.0 | 3.0 | 0.00 | 0.00 | 0.02 | 75 | 1010.9 |
| 20260904054321 | 0 | 0.0 | 0.0 | 0.00 | 0.00 | 0.00 | |||
| 20260904053958 | 54 | 48 | 2.0 | 4.0 | 0.00 | 0.00 | 0.02 | 75 | 1010.9 |
| 20260904053820 | 0 | 0.0 | 0.0 | 0.00 | 0.00 | 0.00 | |||
| 20260904053457 | 54 | 33 | 2.0 | 3.0 | 0.00 | 0.00 | 0.02 | 75 | 1010.8 |
| 20260904053320 | 0 | 0.0 | 0.0 | 0.00 | 0.00 | 0.00 | |||
| 20260904052957 | 54 | 38 | 2.0 | 3.0 | 0.00 | 0.00 | 0.02 | 75 | 1010.8 |
| 20260904052819 | 0 | 0.0 | 0.0 | 0.00 | 0.00 | 0.00 | |||
| 20260904052457 | 54 | 46 | 2.0 | 3.0 | 0.00 | 0.00 | 0.02 | 75 | 1010.8 |
| 20260904052320 | 0 | 0.0 | 0.0 | 0.00 | 0.00 | 0.00 | |||
| 20260904051957 | 54 | 40 | 2.0 | 4.0 | 0.00 | 0.00 | 0.02 | 75 | 1010.8 |
| 20260904051820 | 0 | 0.0 | 0.0 | 0.00 | 0.00 | 0.00 | |||
| 20260904051457 | 54 | 38 | 1.0 | 3.0 | 0.00 | 0.00 | 0.02 | 75 | 1010.8 |
| 20260904051319 | 0 | 0.0 | 0.0 | 0.00 | 0.00 | 0.00 | |||
| 20260904050957 | 54 | 11 | 1.0 | 4.0 | 0.00 | 0.00 | 0.02 | 75 | 1010.8 |
| 20260904050820 | 0 | 0.0 | 0.0 | 0.00 | 0.00 | 0.00 | |||
| 20260904050458 | 54 | 23 | 1.0 | 3.0 | 0.00 | 0.00 | 0.02 | 76 | 1010.8 |
| 20260904050319 | 0 | 0.0 | 0.0 | 0.00 | 0.00 | 0.00 | |||
| 20260904045956 | 54 | 31 | 2.0 | 3.0 | 0.00 | 0.00 | 0.02 | 75 | 1010.8 |
| 20260904045821 | 0 | 0.0 | 0.0 | 0.00 | 0.00 | 0.00 | |||
| 20260904045458 | 55 | 34 | 2.0 | 3.0 | 0.00 | 0.00 | 0.02 | 75 | 1010.7 |
| 20260904045317 | 0 | 0.0 | 0.0 | 0.00 | 0.00 | 0.00 | |||
| 20260904044957 | 54 | 33 | 2.0 | 3.0 | 0.00 | 0.00 | 0.02 | 75 | 1010.7 |
| 20260904044458 | 54 | 45 | 2.0 | 3.0 | 0.00 | 0.00 | 0.02 | 75 | 1010.7 |
| 20260904044318 | 0 | 0.0 | 0.0 | 0.00 | 0.00 | 0.00 | |||
| 20260904043958 | 54 | 33 | 2.0 | 3.0 | 0.00 | 0.00 | 0.02 | 76 | 1010.7 |
| 20260904043819 | 0 | 0.0 | 0.0 | 0.00 | 0.00 | 0.00 | |||
| 20260904043457 | 55 | 41 | 2.0 | 2.0 | 0.00 | 0.00 | 0.02 | 75 | 1010.7 |
| 20260904042959 | 55 | 36 | 1.0 | 3.0 | 0.00 | 0.00 | 0.02 | 75 | 1010.7 |
| 20260904042817 | 0 | 0.0 | 0.0 | 0.00 | 0.00 | 0.00 | |||
| 20260904042459 | 55 | 28 | 2.0 | 3.0 | 0.00 | 0.00 | 0.02 | 75 | 1010.7 |
| 20260904041957 | 55 | 24 | 2.0 | 3.0 | 0.00 | 0.00 | 0.02 | 75 | 1010.8 |
| 20260904041818 | 0 | 0.0 | 0.0 | 0.00 | 0.00 | 0.00 | |||
| 20260904041458 | 55 | 33 | 1.0 | 3.0 | 0.00 | 0.00 | 0.02 | 75 | 1010.8 |
| 20260904040957 | 55 | 32 | 2.0 | 3.0 | 0.00 | 0.00 | 0.02 | 75 | 1010.8 |
| 20260904040817 | 0 | 0.0 | 0.0 | 0.00 | 0.00 | 0.00 | |||
| 20260904040458 | 55 | 35 | 2.0 | 3.0 | 0.00 | 0.00 | 0.02 | 75 | 1010.8 |
| 20260904040318 | 0 | 0.0 | 0.0 | 0.00 | 0.00 | 0.00 | |||
| 20260904035957 | 55 | 32 | 2.0 | 3.0 | 0.00 | 0.00 | 0.02 | 75 | 1010.9 |
| 20260904035815 | 0 | 0.0 | 0.0 | 0.00 | 0.00 | 0.00 | |||
| 20260904035458 | 55 | 14 | 1.0 | 2.0 | 0.00 | 0.00 | 0.02 | 74 | 1010.9 |
| 20260904035315 | 0 | 0.0 | 0.0 | 0.00 | 0.00 | 0.00 | |||
| 20260904034957 | 55 | 23 | 1.0 | 3.0 | 0.00 | 0.00 | 0.02 | 74 | 1010.9 |
| 20260904034816 | 0 | 0.0 | 0.0 | 0.00 | 0.00 | 0.00 | |||
| 20260904034458 | 55 | 21 | 1.0 | 2.0 | 0.00 | 0.00 | 0.02 | 74 | 1010.9 |
| 20260904033957 | 55 | 26 | 1.0 | 3.0 | 0.00 | 0.00 | 0.02 | 74 | 1010.8 |
| 20260904033816 | 0 | 0.0 | 0.0 | 0.00 | 0.00 | 0.00 | |||
| 20260904033457 | 55 | 20 | 1.0 | 3.0 | 0.00 | 0.00 | 0.02 | 74 | 1010.8 |
| 20260904032958 | 55 | 35 | 1.0 | 4.0 | 0.00 | 0.00 | 0.02 | 74 | 1010.8 |
| 20260904032815 | 0 | 0.0 | 0.0 | 0.00 | 0.00 | 0.00 | |||
| 20260904032457 | 56 | 29 | 1.0 | 2.0 | 0.00 | 0.00 | 0.02 | 73 | 1010.8 |
| 20260904032316 | 0 | 0.0 | 0.0 | 0.00 | 0.00 | 0.00 | |||
| 20260904031957 | 56 | 24 | 1.0 | 2.0 | 0.00 | 0.00 | 0.02 | 73 | 1010.7 |
| 20260904031457 | 56 | 53 | 1.0 | 2.0 | 0.00 | 0.00 | 0.02 | 73 | 1010.7 |
| 20260904031316 | 0 | 0.0 | 0.0 | 0.00 | 0.00 | 0.00 | |||
| 20260904030957 | 56 | 25 | 1.0 | 2.0 | 0.00 | 0.00 | 0.02 | 73 | 1010.7 |
| 20260904030815 | 0 | 0.0 | 0.0 | 0.00 | 0.00 | 0.00 | |||
| 20260904030457 | 56 | 40 | 0.0 | 2.0 | 0.00 | 0.00 | 0.02 | 72 | 1010.6 |
| 20260904030316 | 0 | 0.0 | 0.0 | 0.00 | 0.00 | 0.00 | |||
| 20260904025957 | 57 | 29 | 1.0 | 2.0 | 0.00 | 0.00 | 0.02 | 71 | 1010.6 |
| 20260904025817 | 0 | 0.0 | 0.0 | 0.00 | 0.00 | 0.00 | |||
| 20260904025457 | 57 | 10 | 0.0 | 1.0 | 0.00 | 0.00 | 0.02 | 71 | 1010.6 |
| 20260904025316 | 0 | 0.0 | 0.0 | 0.00 | 0.00 | 0.00 | |||
| 20260904025000 | 58 | 33 | 0.0 | 2.0 | 0.00 | 0.00 | 0.02 | 70 | 1010.5 |
| 20260904024816 | 0 | 0.0 | 0.0 | 0.00 | 0.00 | 0.00 | |||
| 20260904024457 | 58 | 331 | 0.0 | 0.0 | 0.00 | 0.00 | 0.02 | 69 | 1010.6 |
| 20260904024316 | 0 | 0.0 | 0.0 | 0.00 | 0.00 | 0.00 | |||
| 20260904023957 | 59 | 33 | 0.0 | 1.0 | 0.00 | 0.00 | 0.02 | 68 | 1010.6 |
| 20260904023816 | 0 | 0.0 | 0.0 | 0.00 | 0.00 | 0.00 | |||
| 20260904023457 | 59 | 321 | 1.0 | 2.0 | 0.00 | 0.00 | 0.02 | 67 | 1010.5 |
| 20260904023313 | 0 | 0.0 | 0.0 | 0.00 | 0.00 | 0.00 | |||
| 20260904022957 | 60 | 297 | 0.0 | 2.0 | 0.00 | 0.00 | 0.02 | 67 | 1010.5 |
| 20260904022814 | 0 | 0.0 | 0.0 | 0.00 | 0.00 | 0.00 | |||
| 20260904022457 | 60 | 303 | 1.0 | 2.0 | 0.00 | 0.00 | 0.02 | 66 | 1010.4 |
| 20260904022314 | 0 | 0.0 | 0.0 | 0.00 | 0.00 | 0.00 | |||
| 20260904021957 | 60 | 307 | 2.0 | 3.0 | 0.00 | 0.00 | 0.02 | 66 | 1010.4 |
| 20260904021813 | 0 | 0.0 | 0.0 | 0.00 | 0.00 | 0.00 | |||
| 20260904021458 | 62 | 294 | 2.0 | 3.0 | 0.00 | 0.00 | 0.02 | 64 | 1010.4 |
| 20260904021314 | 0 | 0.0 | 0.0 | 0.00 | 0.00 | 0.00 | |||
| 20260904020957 | 62 | 271 | 2.0 | 3.0 | 0.00 | 0.00 | 0.02 | 63 | 1010.3 |
| 20260904020815 | 0 | 0.0 | 0.0 | 0.00 | 0.00 | 0.00 | |||
| 20260904020500 | 62 | 236 | 2.0 | 4.0 | 0.00 | 0.00 | 0.02 | 62 | 1010.3 |
| 20260904020311 | 0 | 0.0 | 0.0 | 0.00 | 0.00 | 0.00 | |||
| 20260904015958 | 62 | 250 | 3.0 | 5.0 | 0.00 | 0.00 | 0.02 | 62 | 1010.2 |
| 20260904015813 | 0 | 0.0 | 0.0 | 0.00 | 0.00 | 0.00 | |||
| 20260904015457 | 62 | 244 | 2.0 | 4.0 | 0.00 | 0.00 | 0.02 | 63 | 1010.2 |
| 20260904015313 | 0 | 0.0 | 0.0 | 0.00 | 0.00 | 0.00 | |||
| 20260904014958 | 62 | 239 | 4.0 | 5.0 | 0.00 | 0.00 | 0.02 | 61 | 1010.1 |
| 20260904014808 | 0 | 0.0 | 0.0 | 0.00 | 0.00 | 0.00 | |||
| 20260904014458 | 62 | 151 | 3.0 | 4.0 | 0.00 | 0.00 | 0.02 | 61 | 1010.1 |
| 20260904013957 | 62 | 182 | 2.0 | 3.0 | 0.00 | 0.00 | 0.02 | 61 | 1010.1 |
| 20260904013808 | 0 | 0.0 | 0.0 | 0.00 | 0.00 | 0.00 | |||
| 20260904013457 | 62 | 222 | 3.0 | 5.0 | 0.00 | 0.00 | 0.02 | 60 | 1010.0 |
| 20260904013309 | 0 | 0.0 | 0.0 | 0.00 | 0.00 | 0.00 | |||
| 20260904012957 | 62 | 251 | 2.0 | 5.0 | 0.00 | 0.00 | 0.02 | 61 | 1010.0 |
| 20260904012809 | 0 | 0.0 | 0.0 | 0.00 | 0.00 | 0.00 | |||
| 20260904012457 | 62 | 170 | 3.0 | 4.0 | 0.00 | 0.00 | 0.02 | 61 | 1010.1 |
| 20260904012309 | 0 | 0.0 | 0.0 | 0.00 | 0.00 | 0.00 | |||
| 20260904011957 | 62 | 161 | 4.0 | 6.0 | 0.00 | 0.00 | 0.02 | 60 | 1010.0 |
| 20260904011809 | 0 | 0.0 | 0.0 | 0.00 | 0.00 | 0.00 | |||
| 20260904011458 | 62 | 173 | 3.0 | 4.0 | 0.00 | 0.00 | 0.02 | 61 | 1010.0 |
| 20260904011309 | 0 | 0.0 | 0.0 | 0.00 | 0.00 | 0.00 | |||
| 20260904010959 | 62 | 169 | 3.0 | 4.0 | 0.00 | 0.00 | 0.02 | 60 | 1010.0 |
| 20260904010808 | 0 | 0.0 | 0.0 | 0.00 | 0.00 | 0.00 | |||
| 20260904010457 | 62 | 217 | 4.0 | 6.0 | 0.00 | 0.00 | 0.02 | 61 | 1010.0 |
| 20260904010309 | 0 | 0.0 | 0.0 | 0.00 | 0.00 | 0.00 | |||
| 20260904005957 | 62 | 213 | 1.0 | 4.0 | 0.00 | 0.00 | 0.02 | 62 | 1010.0 |
| 20260904005809 | 0 | 0.0 | 0.0 | 0.00 | 0.00 | 0.00 | |||
| 20260904005457 | 62 | 164 | 3.0 | 4.0 | 0.00 | 0.00 | 0.02 | 61 | 1010.0 |
| 20260904005307 | 0 | 0.0 | 0.0 | 0.00 | 0.00 | 0.00 | |||
| 20260904004957 | 62 | 174 | 4.0 | 5.0 | 0.00 | 0.00 | 0.02 | 61 | 1010.0 |